Orbital Elements at Epoch 2459000.5 (2020-May-31.0) TDB
Reference: JPL 9 (heliocentric ecliptic J2000)
Element | Value | Uncertainty (1-sigma) | Units |
e | .01599294788698882 | 1.2272e-06 | |
a | 2.910811171032937 | 8.0758e-08 | au |
q | 2.864258719665743 | 3.5084e-06 | au |
i | 1.563601233955472 | 8.642e-05 | deg |
node | 194.9736643656613 | 0.00096678 | deg |
peri | 16.52805732075868 | 0.0029638 | deg |
M | 57.08210833526118 | 0.0027891 | deg |
tp | 2458712.881391369053 (2019-Aug-17.38139137) | 0.014063 | TDB |
period | 1813.925626205011 4.97 | 7.5489e-05 2.067e-07 | d yr |
n | .1984645868602512 | 8.2593e-09 | deg/d |
Q | 2.957363622400132 | 8.2049e-08 | au |
|
| | Orbit Determination Parameters
Additional Information
|